| time (UTC) | temp F | wind direction | speed knots | gust knots | rain 1hr in | rain 24hr in | rain mn in | humidity % | barometer mb |
| 20260503202859 | 70 | 195 | 1.7 | 5.2 | 0.00 | 0.00 | 0.00 | 39 | 1019.1 |
| 20260503202357 | 69 | 193 | 0.0 | 0.9 | 0.00 | 0.00 | 0.00 | 38 | 1019.1 |
| 20260503201855 | 68 | 201 | 0.9 | 2.6 | 0.00 | 0.00 | 0.00 | 38 | 1019.4 |
| 20260503201352 | 68 | 250 | 2.6 | 6.1 | 0.00 | 0.00 | 0.00 | 39 | 1019.1 |
| 20260503200850 | 69 | 164 | 0.9 | 2.6 | 0.00 | 0.00 | 0.00 | 41 | 1019.4 |
| 20260503200345 | 67 | 191 | 0.0 | 3.5 | 0.00 | 0.00 | 0.00 | 44 | 1019.5 |
| 20260503195843 | 68 | 266 | 2.6 | 5.2 | 0.00 | 0.00 | 0.00 | 39 | 1019.6 |
| 20260503195339 | 68 | 208 | 1.7 | 5.2 | 0.00 | 0.00 | 0.00 | 41 | 1019.6 |
| 20260503194836 | 69 | 199 | 2.6 | 5.2 | 0.00 | 0.00 | 0.00 | 40 | 1019.8 |
| 20260503194332 | 70 | 275 | 0.9 | 2.6 | 0.00 | 0.00 | 0.00 | 41 | 1020.0 |
| 20260503193829 | 69 | 175 | 0.9 | 1.7 | 0.00 | 0.00 | 0.00 | 42 | 1020.0 |
| 20260503193324 | 67 | 333 | 0.0 | 3.5 | 0.00 | 0.00 | 0.00 | 46 | 1020.0 |
| 20260503192821 | 67 | 167 | 0.9 | 1.7 | 0.00 | 0.00 | 0.00 | 42 | 1020.2 |
| 20260503192316 | 68 | 113 | 1.7 | 3.5 | 0.00 | 0.00 | 0.00 | 43 | 1020.2 |
| 20260503191812 | 67 | 146 | 0.0 | 0.9 | 0.00 | 0.00 | 0.00 | 47 | 1020.1 |
| 20260503191310 | 66 | 146 | 0.9 | 3.5 | 0.00 | 0.00 | 0.00 | 47 | 1020.1 |
| 20260503190806 | 67 | 162 | 2.6 | 3.5 | 0.00 | 0.00 | 0.00 | 43 | 1020.2 |
| 20260503190304 | 66 | 214 | 0.0 | 3.5 | 0.00 | 0.00 | 0.00 | 45 | 1020.3 |
| 20260503185801 | 67 | 175 | 1.7 | 6.1 | 0.00 | 0.00 | 0.00 | 46 | 1020.3 |
| 20260503185256 | 67 | 110 | 0.9 | 1.7 | 0.00 | 0.00 | 0.00 | 45 | 1020.4 |
| 20260503184756 | 66 | 283 | 0.9 | 2.6 | 0.00 | 0.00 | 0.00 | 46 | 1020.4 |
| 20260503184253 | 66 | 185 | 1.7 | 2.6 | 0.00 | 0.00 | 0.00 | 44 | 1020.7 |
| 20260503183748 | 65 | 160 | 3.5 | 6.1 | 0.00 | 0.00 | 0.00 | 48 | 1020.8 |
| 20260503183246 | 64 | 192 | 1.7 | 1.7 | 0.00 | 0.00 | 0.00 | 49 | 1020.6 |
| 20260503182744 | 65 | 146 | 0.9 | 0.9 | 0.00 | 0.00 | 0.00 | 52 | 1020.7 |
| 20260503182243 | 64 | 188 | 0.9 | 2.6 | 0.00 | 0.00 | 0.00 | 51 | 1020.7 |
| 20260503181739 | 64 | 139 | 2.6 | 2.6 | 0.00 | 0.00 | 0.00 | 50 | 1020.8 |
| 20260503181236 | 64 | 191 | 1.7 | 3.5 | 0.00 | 0.00 | 0.00 | 49 | 1021.0 |
| 20260503180732 | 64 | 356 | 1.7 | 3.5 | 0.00 | 0.00 | 0.00 | 46 | 1021.1 |
| 20260503180231 | 64 | 115 | 2.6 | 6.1 | 0.00 | 0.00 | 0.00 | 49 | 1020.9 |
| 20260503175727 | 63 | 198 | 0.9 | 3.5 | 0.00 | 0.00 | 0.00 | 46 | 1021.1 |
| 20260503175225 | 64 | 288 | 0.0 | 3.5 | 0.00 | 0.00 | 0.00 | 45 | 1021.4 |
| 20260503174721 | 64 | 247 | 1.7 | 6.1 | 0.00 | 0.00 | 0.00 | 44 | 1021.1 |
| 20260503174219 | 63 | 206 | 1.7 | 1.7 | 0.00 | 0.00 | 0.00 | 46 | 1021.2 |
| 20260503173714 | 63 | 176 | 0.0 | 3.5 | 0.00 | 0.00 | 0.00 | 48 | 1021.0 |
| 20260503173210 | 64 | 288 | 3.5 | 5.2 | 0.00 | 0.00 | 0.00 | 46 | 1020.9 |
| 20260503172707 | 62 | 254 | 0.9 | 2.6 | 0.00 | 0.00 | 0.00 | 48 | 1021.3 |
| 20260503172204 | 62 | 220 | 2.6 | 7.0 | 0.00 | 0.00 | 0.00 | 46 | 1021.4 |
| 20260503171700 | 61 | 359 | 0.9 | 1.7 | 0.00 | 0.00 | 0.00 | 48 | 1021.3 |
| 20260503171158 | 61 | 157 | 1.7 | 2.6 | 0.00 | 0.00 | 0.00 | 47 | 1021.6 |
| 20260503170655 | 61 | 271 | 0.9 | 2.6 | 0.00 | 0.00 | 0.00 | 48 | 1021.7 |
| 20260503170151 | 61 | 199 | 2.6 | 6.1 | 0.00 | 0.00 | 0.00 | 47 | 1021.7 |
| 20260503160113 | 59 | 139 | 0.0 | 0.0 | 0.00 | 0.00 | 0.00 | 58 | 1022.3 |
| 20260503150543 | 58 | 350 | 1.7 | 2.6 | 0.00 | 0.00 | 0.00 | 62 | 1022.5 |
| 20260503130933 | 54 | 239 | 0.9 | 1.7 | 0.00 | 0.00 | 0.00 | 77 | 1021.8 |
| 20260503130431 | 54 | 237 | 0.0 | 0.9 | 0.00 | 0.00 | 0.00 | 75 | 1021.7 |
| 20260503110824 | 40 | 343 | 0.0 | 0.0 | 0.00 | 0.00 | 0.00 | 97 | 1020.9 |
| 20260503110320 | 40 | 343 | 0.0 | 0.0 | 0.00 | 0.00 | 0.00 | 97 | 1020.6 |
| 20260503100247 | 41 | 343 | 0.0 | 0.0 | 0.00 | 0.00 | 0.00 | 95 | 1020.3 |
| 20260503090206 | 44 | 237 | 0.0 | 0.0 | 0.00 | 0.00 | 0.00 | 91 | 1019.6 |
| 20260503081138 | 44 | 278 | 0.0 | 0.0 | 0.00 | 0.00 | 0.00 | 90 | 1019.4 |
| 20260503080634 | 44 | 282 | 0.0 | 0.0 | 0.00 | 0.00 | 0.00 | 89 | 1019.2 |
| 20260503080131 | 45 | 258 | 0.0 | 0.0 | 0.00 | 0.00 | 0.00 | 89 | 1019.1 |
| 20260503072608 | 47 | 342 | 0.0 | 0.9 | 0.00 | 0.00 | 0.00 | 83 | 1019.0 |
| 20260503072106 | 47 | 218 | 0.0 | 0.0 | 0.00 | 0.00 | 0.00 | 83 | 1018.9 |
| 20260503071602 | 46 | 251 | 0.0 | 0.9 | 0.00 | 0.00 | 0.00 | 83 | 1018.9 |
| 20260503071059 | 46 | 243 | 0.0 | 0.0 | 0.00 | 0.00 | 0.00 | 85 | 1018.8 |
| 20260503070555 | 46 | 243 | 0.0 | 0.0 | 0.00 | 0.00 | 0.00 | 85 | 1018.9 |
| 20260503055014 | 47 | 248 | 0.0 | 0.0 | 0.00 | 0.00 | 0.00 | 82 | 1018.9 |
| 20260503054510 | 47 | 248 | 0.0 | 0.0 | 0.00 | 0.00 | 0.00 | 81 | 1018.9 |
| 20260503054008 | 47 | 248 | 0.0 | 0.0 | 0.00 | 0.00 | 0.00 | 81 | 1018.9 |
| 20260503053506 | 47 | 248 | 0.0 | 0.0 | 0.00 | 0.00 | 0.00 | 80 | 1018.8 |
| 20260503053002 | 48 | 248 | 0.0 | 0.0 | 0.00 | 0.00 | 0.00 | 80 | 1018.8 |
| 20260503052500 | 48 | 248 | 0.0 | 0.0 | 0.00 | 0.00 | 0.00 | 79 | 1019.0 |
| 20260503051956 | 48 | 247 | 0.0 | 0.0 | 0.00 | 0.00 | 0.00 | 79 | 1018.8 |
| 20260503051452 | 49 | 248 | 0.0 | 0.0 | 0.00 | 0.00 | 0.00 | 77 | 1018.8 |
| 20260503050949 | 49 | 248 | 0.0 | 0.0 | 0.00 | 0.00 | 0.00 | 74 | 1018.9 |
| 20260503050445 | 49 | 248 | 0.0 | 0.0 | 0.00 | 0.00 | 0.00 | 73 | 1019.0 |
| 20260503045943 | 50 | 248 | 0.0 | 0.0 | 0.00 | 0.00 | 0.00 | 73 | 1019.0 |
| 20260503045440 | 50 | 248 | 0.0 | 0.0 | 0.00 | 0.00 | 0.00 | 72 | 1018.8 |
| 20260503044936 | 51 | 248 | 0.0 | 0.0 | 0.00 | 0.00 | 0.00 | 69 | 1018.7 |
| 20260503044433 | 51 | 248 | 0.0 | 0.0 | 0.00 | 0.00 | 0.00 | 68 | 1018.7 |
| 20260503043931 | 52 | 248 | 0.0 | 0.0 | 0.00 | 0.00 | 0.00 | 67 | 1018.6 |
| 20260503043427 | 52 | 248 | 0.0 | 0.0 | 0.00 | 0.00 | 0.00 | 66 | 1018.7 |
| 20260503042924 | 53 | 248 | 0.0 | 0.9 | 0.00 | 0.00 | 0.00 | 64 | 1018.8 |
| 20260503042421 | 53 | 255 | 0.9 | 1.7 | 0.00 | 0.00 | 0.00 | 64 | 1018.7 |
| 20260503041917 | 53 | 253 | 0.0 | 2.6 | 0.00 | 0.00 | 0.00 | 63 | 1018.7 |
| 20260503041414 | 54 | 183 | 0.0 | 2.6 | 0.00 | 0.00 | 0.00 | 62 | 1018.9 |
| 20260503040911 | 54 | 213 | 1.7 | 2.6 | 0.00 | 0.00 | 0.00 | 61 | 1018.5 |
| 20260503040409 | 54 | 256 | 3.5 | 3.5 | 0.00 | 0.00 | 0.00 | 61 | 1018.5 |
| 20260503035906 | 54 | 242 | 0.9 | 2.6 | 0.00 | 0.00 | 0.00 | 62 | 1018.6 |
| 20260503035402 | 54 | 202 | 2.6 | 3.5 | 0.00 | 0.00 | 0.00 | 61 | 1018.3 |
| 20260503034900 | 54 | 236 | 0.9 | 1.7 | 0.00 | 0.00 | 0.00 | 62 | 1018.5 |
| 20260503034357 | 53 | 238 | 1.7 | 2.6 | 0.00 | 0.00 | 0.00 | 62 | 1018.3 |
| 20260503033854 | 53 | 189 | 0.0 | 0.0 | 0.00 | 0.00 | 0.00 | 67 | 1018.4 |
| 20260503033352 | 53 | 189 | 0.0 | 0.0 | 0.00 | 0.00 | 0.00 | 66 | 1018.2 |
| 20260503032849 | 53 | 189 | 0.0 | 0.0 | 0.00 | 0.00 | 0.00 | 65 | 1018.4 |
| 20260503032348 | 53 | 189 | 0.0 | 0.0 | 0.00 | 0.00 | 0.00 | 66 | 1018.3 |
| 20260503031845 | 52 | 189 | 0.0 | 0.0 | 0.00 | 0.00 | 0.00 | 65 | 1018.2 |
| 20260503031343 | 52 | 189 | 0.0 | 0.0 | 0.00 | 0.00 | 0.00 | 72 | 1018.2 |
| 20260503030839 | 52 | 189 | 0.0 | 0.0 | 0.00 | 0.00 | 0.00 | 70 | 1018.3 |
| 20260503030336 | 52 | 189 | 0.0 | 0.0 | 0.00 | 0.00 | 0.00 | 65 | 1018.1 |
| 20260503025832 | 52 | 189 | 0.0 | 0.0 | 0.00 | 0.00 | 0.00 | 67 | 1018.3 |
| 20260503025330 | 52 | 189 | 0.0 | 0.0 | 0.00 | 0.00 | 0.00 | 68 | 1018.1 |
| 20260503024827 | 52 | 189 | 0.0 | 0.0 | 0.00 | 0.00 | 0.00 | 65 | 1018.0 |
| 20260503024323 | 52 | 189 | 0.0 | 0.0 | 0.00 | 0.00 | 0.00 | 70 | 1018.1 |
| 20260503023820 | 52 | 189 | 0.0 | 0.0 | 0.00 | 0.00 | 0.00 | 69 | 1017.9 |
| 20260503023318 | 52 | 189 | 0.0 | 0.0 | 0.00 | 0.00 | 0.00 | 69 | 1017.7 |
| 20260503022814 | 52 | 189 | 0.0 | 0.0 | 0.00 | 0.00 | 0.00 | 66 | 1017.6 |
| 20260503022309 | 52 | 189 | 0.0 | 0.0 | 0.00 | 0.00 | 0.00 | 67 | 1017.4 |
| 20260503021806 | 53 | 189 | 0.0 | 0.0 | 0.00 | 0.00 | 0.00 | 70 | 1017.5 |
| 20260503021302 | 53 | 189 | 0.0 | 0.0 | 0.00 | 0.00 | 0.00 | 62 | 1017.2 |
| 20260503020800 | 53 | 189 | 0.9 | 0.9 | 0.00 | 0.00 | 0.00 | 60 | 1017.4 |
| 20260503020257 | 53 | 237 | 0.0 | 0.0 | 0.00 | 0.00 | 0.00 | 67 | 1017.1 |
| 20260503015753 | 53 | 237 | 0.0 | 0.0 | 0.00 | 0.00 | 0.00 | 61 | 1017.0 |
| 20260503015250 | 53 | 237 | 0.0 | 0.0 | 0.00 | 0.00 | 0.00 | 65 | 1017.0 |
| 20260503014746 | 53 | 237 | 0.0 | 0.0 | 0.00 | 0.00 | 0.00 | 66 | 1016.8 |
| 20260503014244 | 53 | 237 | 0.0 | 0.0 | 0.00 | 0.00 | 0.00 | 68 | 1016.8 |
| 20260503013741 | 53 | 237 | 0.0 | 0.0 | 0.00 | 0.00 | 0.00 | 68 | 1016.9 |
| 20260503013239 | 53 | 237 | 0.0 | 0.0 | 0.00 | 0.00 | 0.00 | 67 | 1016.8 |
| 20260503012736 | 54 | 237 | 0.0 | 0.0 | 0.00 | 0.00 | 0.00 | 64 | 1016.6 |
| 20260503012233 | 54 | 237 | 0.0 | 0.0 | 0.00 | 0.00 | 0.00 | 64 | 1016.6 |
| 20260503011729 | 54 | 237 | 0.0 | 0.0 | 0.00 | 0.00 | 0.00 | 61 | 1016.5 |
| 20260503011227 | 54 | 237 | 0.0 | 0.0 | 0.00 | 0.00 | 0.00 | 60 | 1016.5 |
| 20260503010722 | 55 | 237 | 0.0 | 0.0 | 0.00 | 0.00 | 0.00 | 60 | 1016.4 |
| 20260503010220 | 55 | 237 | 0.0 | 0.0 | 0.00 | 0.00 | 0.00 | 59 | 1016.4 |
| 20260503005717 | 56 | 237 | 0.0 | 0.0 | 0.00 | 0.00 | 0.00 | 57 | 1016.6 |
| 20260503005214 | 56 | 237 | 0.0 | 0.0 | 0.00 | 0.00 | 0.00 | 56 | 1016.3 |
| 20260503004710 | 57 | 237 | 0.0 | 0.0 | 0.00 | 0.00 | 0.00 | 54 | 1016.3 |
| 20260503004209 | 58 | 217 | 0.0 | 0.0 | 0.00 | 0.00 | 0.00 | 51 | 1016.4 |
| 20260503003706 | 59 | 237 | 0.0 | 0.0 | 0.00 | 0.00 | 0.00 | 49 | 1016.3 |
| 20260503003202 | 59 | 237 | 0.0 | 0.9 | 0.00 | 0.00 | 0.00 | 48 | 1016.3 |
| 20260503002659 | 59 | 220 | 0.0 | 0.9 | 0.00 | 0.00 | 0.00 | 47 | 1016.2 |
| 20260503002156 | 60 | 242 | 0.0 | 0.0 | 0.00 | 0.00 | 0.00 | 47 | 1015.9 |
| 20260503001652 | 60 | 221 | 0.0 | 0.0 | 0.00 | 0.00 | 0.00 | 46 | 1016.1 |
| 20260503001149 | 61 | 242 | 0.0 | 0.0 | 0.00 | 0.00 | 0.00 | 45 | 1016.0 |
| 20260503000647 | 62 | 242 | 0.0 | 0.0 | 0.00 | 0.00 | 0.00 | 43 | 1015.9 |
| 20260503000143 | 62 | 221 | 0.0 | 0.0 | 0.00 | 0.00 | 0.00 | 42 | 1015.8 |
| 20260502235640 | 63 | 252 | 0.0 | 0.0 | 0.00 | 0.00 | 0.00 | 41 | 1015.7 |
| 20260502235138 | 63 | 252 | 0.9 | 1.7 | 0.00 | 0.00 | 0.00 | 39 | 1015.8 |
| 20260502234633 | 64 | 255 | 1.7 | 2.6 | 0.00 | 0.00 | 0.00 | 39 | 1015.6 |
| 20260502234131 | 64 | 197 | 0.0 | 3.5 | 0.00 | 0.00 | 0.00 | 38 | 1015.6 |
| 20260502233627 | 65 | 239 | 1.7 | 2.6 | 0.00 | 0.00 | 0.00 | 37 | 1015.5 |
| 20260502233124 | 66 | 183 | 1.7 | 3.5 | 0.00 | 0.00 | 0.00 | 36 | 1015.6 |
| 20260502232620 | 66 | 213 | 2.6 | 6.1 | 0.00 | 0.00 | 0.00 | 35 | 1015.7 |
| 20260502232118 | 66 | 200 | 3.5 | 6.1 | 0.00 | 0.00 | 0.00 | 35 | 1015.5 |
| 20260502231614 | 66 | 212 | 0.9 | 6.1 | 0.00 | 0.00 | 0.00 | 35 | 1015.5 |
| 20260502231112 | 66 | 190 | 3.5 | 5.2 | 0.00 | 0.00 | 0.00 | 36 | 1015.5 |
| 20260502230610 | 66 | 171 | 2.6 | 2.6 | 0.00 | 0.00 | 0.00 | 34 | 1015.5 |
| 20260502230108 | 66 | 253 | 1.7 | 6.1 | 0.00 | 0.00 | 0.00 | 35 | 1015.7 |
| 20260502225603 | 66 | 140 | 1.7 | 8.7 | 0.00 | 0.00 | 0.00 | 35 | 1015.6 |
| 20260502225101 | 67 | 282 | 3.5 | 6.1 | 0.00 | 0.00 | 0.00 | 35 | 1015.5 |
| 20260502224556 | 66 | 257 | 0.9 | 3.5 | 0.00 | 0.00 | 0.00 | 37 | 1015.6 |
| 20260502224054 | 65 | 289 | 1.7 | 1.7 | 0.00 | 0.00 | 0.00 | 38 | 1015.5 |
| 20260502223551 | 66 | 300 | 2.6 | 5.2 | 0.00 | 0.00 | 0.00 | 36 | 1015.5 |
| 20260502223050 | 68 | 210 | 2.6 | 7.0 | 0.00 | 0.00 | 0.00 | 34 | 1015.5 |
| 20260502222547 | 66 | 219 | 0.9 | 5.2 | 0.00 | 0.00 | 0.00 | 35 | 1015.5 |
| 20260502222043 | 66 | 231 | 4.3 | 8.7 | 0.00 | 0.00 | 0.00 | 35 | 1015.5 |
| 20260502221539 | 66 | 310 | 3.5 | 3.5 | 0.00 | 0.00 | 0.00 | 35 | 1015.4 |
| 20260502221036 | 67 | 262 | 5.2 | 9.6 | 0.00 | 0.00 | 0.00 | 34 | 1015.5 |
| 20260502220532 | 67 | 277 | 3.5 | 5.2 | 0.00 | 0.00 | 0.00 | 34 | 1015.3 |
| 20260502220029 | 67 | 250 | 2.6 | 3.5 | 0.00 | 0.00 | 0.00 | 36 | 1015.3 |
| 20260502215526 | 66 | 314 | 0.9 | 2.6 | 0.00 | 0.00 | 0.00 | 38 | 1015.3 |
| 20260502215023 | 66 | 317 | 1.7 | 2.6 | 0.00 | 0.00 | 0.00 | 40 | 1015.2 |
| 20260502214520 | 66 | 284 | 3.5 | 7.0 | 0.00 | 0.00 | 0.00 | 36 | 1015.3 |
| 20260502214017 | 65 | 293 | 3.5 | 6.1 | 0.00 | 0.00 | 0.00 | 37 | 1015.2 |
| 20260502213514 | 67 | 267 | 3.5 | 5.2 | 0.00 | 0.00 | 0.00 | 37 | 1015.2 |
| 20260502213012 | 67 | 234 | 1.7 | 8.7 | 0.00 | 0.00 | 0.00 | 38 | 1015.2 |
| 20260502212510 | 66 | 305 | 3.5 | 7.8 | 0.00 | 0.00 | 0.00 | 36 | 1015.2 |
| 20260502212007 | 66 | 254 | 4.3 | 9.6 | 0.00 | 0.00 | 0.00 | 38 | 1015.1 |
| 20260502211503 | 66 | 233 | 4.3 | 7.0 | 0.00 | 0.00 | 0.00 | 36 | 1015.1 |
| 20260502211001 | 66 | 258 | 3.5 | 7.0 | 0.00 | 0.00 | 0.00 | 35 | 1014.9 |
| 20260502210457 | 67 | 308 | 3.5 | 6.1 | 0.00 | 0.00 | 0.00 | 37 | 1014.7 |
| 20260502205954 | 66 | 285 | 3.5 | 9.6 | 0.00 | 0.00 | 0.00 | 35 | 1015.1 |
| 20260502205450 | 67 | 161 | 4.3 | 11.3 | 0.00 | 0.00 | 0.00 | 35 | 1014.9 |
| 20260502204948 | 68 | 134 | 4.3 | 6.1 | 0.00 | 0.00 | 0.00 | 38 | 1014.7 |
| 20260502204444 | 68 | 296 | 0.9 | 3.5 | 0.00 | 0.00 | 0.00 | 38 | 1014.9 |
| 20260502203943 | 67 | 258 | 2.6 | 6.1 | 0.00 | 0.00 | 0.00 | 37 | 1014.8 |
| 20260502203439 | 67 | 333 | 0.9 | 7.8 | 0.00 | 0.00 | 0.00 | 36 | 1015.2 |